QPF
0.00 0.00 0.00 0.00 0.00 0.00 0.00 0.00 0.00 0.00 0.00 0.00 0.00 0.00 0.00 0.00 0.00 0.01 0.01 0.01 0.01 0.02 0.03 0.01 0.02 0.02 0.02 0.02 0.02 0.01 0.01 0.01 0.01 0.01 0.01 0.01 0.01 0.01 0.01 0.01 0.01 0.01 0.02 0.02
0.00 0.00 0.00 0.00 0.00 0.00 0.00 0.00 0.00 0.00 0.00 0.00 0.00 0.00 0.00 0.00 0.00 0.00 0.00 0.00 0.00 0.01 0.01 0.01 0.01 0.01 0.01 0.01 0.01 0.00 0.01 0.00 0.00 0.00 0.00 0.00 0.01 0.01 0.00 0.00 0.01 0.01 0.01 0.01
0.00 0.00 0.00 0.00 0.00 0.00 0.00 0.00 0.00 0.00 0.00 0.00 0.00 0.00 0.00 0.00 0.00 0.00 0.00 0.00 0.00 0.00 0.01 0.01 0.01 0.01 0.01 0.01 0.01 0.00 0.01 0.01 0.01 0.00 0.00 0.00 0.01 0.01 0.01 0.01 0.01 0.01 0.01 0.01
0.00 0.01 0.00 0.00 0.00 0.00 0.00 0.00 0.00 0.00 0.00 0.00 0.00 0.00 0.00 0.00 0.00 0.00 0.00 0.00 0.00 0.00 0.00 0.00 0.00 0.01 0.01 0.01 0.01 0.00 0.01 0.01 0.01 0.01 0.01 0.01 0.01 0.01 0.01 0.01 0.01 0.01 0.01 0.01
0.01 0.01 0.00 0.00 0.00 0.00 0.00 0.00 0.00 0.00 0.00 0.00 0.00 0.00 0.00 0.00 0.00 0.00 0.00 0.00 0.00 0.00 0.00 0.00 0.00 0.01 0.01 0.01 0.01 0.00 0.00 0.00 0.01 0.01 0.01 0.02 0.02 0.01 0.01 0.01 0.01 0.01 0.02 0.02
0.00 0.00 0.00 0.00 0.00 0.00 0.00 0.00 0.00 0.00 0.00 0.00 0.00 0.00 0.00 0.00 0.00 0.00 0.00 0.00 0.00 0.00 0.00 0.00 0.01 0.01 0.01 0.01 0.01 0.01 0.01 0.01 0.01 0.01 0.01 0.02 0.02 0.02 0.01 0.01 0.02 0.02 0.02 0.02
0.00 0.00 0.00 0.00 0.00 0.00 0.00 0.00 0.00 0.00 0.00 0.00 0.00 0.00 0.00 0.00 0.00 0.00 0.00 0.00 0.00 0.00 0.00 0.00 0.00 0.01 0.01 0.01 0.01 0.02 0.01 0.01 0.01 0.01 0.01 0.02 0.02 0.01 0.01 0.01 0.01 0.02 0.02 0.02
0.01 0.00 0.00 0.00 0.00 0.00 0.00 0.00 0.00 0.00 0.00 0.00 0.00 0.00 0.00 0.00 0.00 0.00 0.00 0.00 0.00 0.00 0.00 0.00 0.00 0.01 0.01 0.01 0.02 0.02 0.02 0.02 0.02 0.01 0.02 0.02 0.02 0.02 0.01 0.01 0.02 0.01 0.01 0.02
0.01 0.01 0.00 0.00 0.00 0.00 0.00 0.00 0.00 0.00 0.00 0.00 0.00 0.00 0.00 0.00 0.00 0.00 0.00 0.00 0.00 0.00 0.00 0.00 0.01 0.02 0.02 0.02 0.02 0.01 0.01 0.02 0.02 0.01 0.01 0.01 0.01 0.01 0.01 0.01 0.01 0.01 0.01 0.01
0.00 0.00 0.00 0.00 0.00 0.00 0.00 0.00 0.00 0.00 0.00 0.00 0.00 0.00 0.00 0.00 0.00 0.00 0.00 0.00 0.00 0.00 0.00 0.01 0.01 0.02 0.01 0.01 0.01 0.01 0.01 0.02 0.01 0.01 0.01 0.01 0.01 0.01 0.01 0.01 0.01 0.01 0.01 0.01
0.00 0.00 0.00 0.00 0.00 0.00 0.00 0.00 0.00 0.00 0.00 0.00 0.00 0.00 0.00 0.00 0.00 0.00 0.00 0.00 0.00 0.00 0.01 0.01 0.02 0.02 0.01 0.01 0.01 0.01 0.01 0.01 0.01 0.01 0.01 0.01 0.01 0.00 0.00 0.00 0.00 0.01 0.00 0.01
0.00 0.00 0.00 0.00 0.00 0.00 0.00 0.00 0.00 0.00 0.00 0.00 0.00 0.00 0.00 0.00 0.00 0.00 0.00 0.00 0.00 0.01 0.01 0.01 0.02 0.02 0.02 0.01 0.00 0.00 0.00 0.00 0.00 0.00 0.00 0.00 0.00 0.00 0.00 0.00 0.00 0.00 0.00 0.01
0.00 0.00 0.00 0.00 0.00 0.00 0.00 0.00 0.00 0.00 0.00 0.00 0.00 0.00 0.00 0.00 0.00 0.00 0.00 0.00 0.01 0.01 0.01 0.01 0.01 0.02 0.02 0.02 0.01 0.00 0.00 0.00 0.00 0.00 0.00 0.00 0.00 0.00 0.00 0.01 0.01 0.01 0.01 0.00
0.00 0.00 0.00 0.00 0.00 0.00 0.00 0.00 0.00 0.00 0.00 0.00 0.00 0.00 0.00 0.00 0.00 0.00 0.00 0.00 0.01 0.01 0.02 0.02 0.01 0.02 0.02 0.02 0.02 0.01 0.00 0.00 0.00 0.00 0.00 0.00 0.00 0.00 0.00 0.00 0.01 0.01 0.01 0.01
0.00 0.00 0.00 0.00 0.00 0.00 0.00 0.00 0.00 0.00 0.00 0.00 0.00 0.00 0.00 0.00 0.00 0.00 0.01 0.01 0.01 0.01 0.02 0.03 0.02 0.01 0.01 0.01 0.01 0.01 0.01 0.01 0.00 0.00 0.00 0.01 0.00 0.00 0.00 0.00 0.00 0.01 0.01 0.01
0.00 0.00 0.00 0.00 0.00 0.00 0.00 0.00 0.00 0.00 0.00 0.00 0.00 0.00 0.00 0.00 0.00 0.00 0.01 0.01 0.01 0.00 0.01 0.02 0.03 0.02 0.01 0.01 0.00 0.00 0.01 0.01 0.01 0.01 0.01 0.01 0.01 0.01 0.01 0.01 0.01 0.01 0.01 0.01
0.00 0.01 0.01 0.01 0.01 0.00 0.01 0.01 0.01 0.01 0.01 0.01 0.01 0.00 0.00 0.00 0.00 0.00 0.00 0.01 0.01 0.00 0.00 0.01 0.01 0.01 0.01 0.01 0.01 0.00 0.00 0.00 0.01 0.02 0.01 0.01 0.01 0.01 0.01 0.01 0.01 0.01 0.01 0.00
0.01 0.01 0.01 0.01 0.01 0.01 0.00 0.00 0.00 0.00 0.00 0.00 0.00 0.00 0.00 0.00 0.00 0.00 0.00 0.01 0.01 0.00 0.00 0.00 0.01 0.01 0.01 0.01 0.01 0.00 0.00 0.00 0.00 0.01 0.01 0.01 0.01 0.01 0.01 0.01 0.01 0.01 0.00 0.00
0.01 0.01 0.01 0.01 0.00 0.00 0.00 0.00 0.00 0.00 0.00 0.00 0.00 0.00 0.00 0.00 0.00 0.00 0.00 0.00 0.00 0.00 0.00 0.00 0.01 0.01 0.01 0.01 0.00 0.00 0.00 0.00 0.00 0.00 0.00 0.00 0.01 0.01 0.02 0.02 0.01 0.01 0.01 0.01
0.00 0.00 0.00 0.00 0.00 0.00 0.00 0.00 0.00 0.00 0.00 0.00 0.00 0.00 0.00 0.00 0.00 0.00 0.00 0.00 0.00 0.01 0.01 0.01 0.00 0.00 0.00 0.01 0.00 0.00 0.01 0.01 0.00 0.00 0.00 0.00 0.00 0.00 0.01 0.01 0.01 0.01 0.01 0.01
0.00 0.00 0.00 0.00 0.00 0.00 0.00 0.00 0.00 0.00 0.00 0.00 0.00 0.00 0.00 0.00 0.00 0.01 0.00 0.00 0.00 0.00 0.00 0.01 0.00 0.00 0.01 0.01 0.01 0.01 0.01 0.01 0.01 0.01 0.01 0.00 0.00 0.00 0.01 0.01 0.01 0.01 0.01 0.01
0.00 0.00 0.00 0.00 0.00 0.00 0.00 0.00 0.00 0.00 0.00 0.00 0.00 0.00 0.00 0.00 0.00 0.00 0.00 0.00 0.00 0.00 0.00 0.00 0.00 0.01 0.02 0.02 0.01 0.01 0.01 0.01 0.01 0.02 0.03 0.03 0.02 0.01 0.02 0.02 0.02 0.02 0.02 0.02
0.00 0.00 0.00 0.00 0.00 0.00 0.00 0.00 0.00 0.00 0.00 0.00 0.00 0.00 0.00 0.00 0.00 0.00 0.00 0.00 0.00 0.01 0.01 0.01 0.01 0.01 0.02 0.02 0.02 0.01 0.01 0.01 0.01 0.01 0.02 0.02 0.02 0.02 0.02 0.03 0.03 0.03 0.02 0.02
0.00 0.00 0.00 0.00 0.00 0.00 0.00 0.00 0.00 0.00 0.00 0.00 0.00 0.00 0.00 0.00 0.01 0.01 0.01 0.01 0.01 0.01 0.01 0.01 0.01 0.02 0.01 0.01 0.02 0.01 0.01 0.01 0.01 0.01 0.01 0.01 0.02 0.02 0.02 0.02 0.03 0.03 0.02 0.02
0.00 0.00 0.00 0.00 0.00 0.00 0.00 0.00 0.00 0.00 0.00 0.00 0.00 0.00 0.00 0.00 0.01 0.01 0.01 0.01 0.01 0.01 0.01 0.01 0.01 0.02 0.01 0.01 0.01 0.02 0.01 0.01 0.01 0.01 0.01 0.01 0.01 0.02 0.03 0.04 0.04 0.04 0.03 0.02
0.01 0.01 0.00 0.00 0.00 0.00 0.00 0.00 0.00 0.00 0.00 0.00 0.00 0.00 0.00 0.00 0.01 0.01 0.01 0.01 0.00 0.00 0.00 0.01 0.01 0.01 0.01 0.00 0.00 0.01 0.01 0.01 0.01 0.01 0.01 0.01 0.02 0.02 0.02 0.03 0.03 0.03 0.02 0.02
0.02 0.02 0.01 0.01 0.00 0.00 0.00 0.00 0.00 0.00 0.00 0.00 0.00 0.01 0.01 0.01 0.01 0.01 0.01 0.00 0.00 0.00 0.00 0.00 0.00 0.00 0.00 0.00 0.00 0.01 0.01 0.01 0.01 0.01 0.01 0.01 0.02 0.02 0.02 0.02 0.02 0.02 0.02 0.02
MSLP
1019.64 1020.21 1020.78 1021.30 1021.74 1022.04 1022.16 1022.08 1021.80 1021.33 1020.73 1020.07 1019.44 1018.90 1018.52 1018.32 1018.30 1018.44 1018.68 1018.97 1019.25 1019.47 1019.61 1019.67 1019.68 1019.65 1019.63 1019.64 1019.71 1019.83 1019.99 1020.17 1020.34 1020.49 1020.59 1020.65 1020.67 1020.67 1020.65 1020.64 1020.65 1020.68 1020.72 1020.77
1019.65 1020.13 1020.54 1020.83 1021.01 1021.05 1020.93 1020.67 1020.29 1019.80 1019.26 1018.72 1018.24 1017.86 1017.62 1017.53 1017.57 1017.72 1017.95 1018.20 1018.45 1018.66 1018.83 1018.95 1019.05 1019.15 1019.27 1019.41 1019.60 1019.81 1020.04 1020.27 1020.48 1020.64 1020.77 1020.85 1020.89 1020.92 1020.94 1020.97 1021.00 1021.04 1021.08 1021.11
1019.69 1020.06 1020.29 1020.36 1020.27 1020.05 1019.72 1019.29 1018.80 1018.29 1017.79 1017.35 1016.99 1016.74 1016.62 1016.61 1016.70 1016.87 1017.08 1017.32 1017.56 1017.79 1018.01 1018.22 1018.44 1018.68 1018.94 1019.23 1019.54 1019.85 1020.16 1020.43 1020.67 1020.85 1021.00 1021.10 1021.18 1021.25 1021.31 1021.38 1021.45 1021.51 1021.55 1021.56
1019.69 1019.92 1019.96 1019.82 1019.51 1019.07 1018.55 1017.98 1017.41 1016.87 1016.40 1016.03 1015.76 1015.61 1015.57 1015.62 1015.75 1015.93 1016.14 1016.38 1016.64 1016.91 1017.21 1017.53 1017.88 1018.26 1018.67 1019.10 1019.52 1019.93 1020.30 1020.61 1020.88 1021.09 1021.25 1021.38 1021.49 1021.61 1021.72 1021.83 1021.94 1022.02 1022.07 1022.07
1019.50 1019.58 1019.46 1019.14 1018.66 1018.07 1017.41 1016.74 1016.12 1015.58 1015.14 1014.81 1014.62 1014.54 1014.55 1014.64 1014.79 1014.98 1015.20 1015.46 1015.75 1016.08 1016.46 1016.90 1017.38 1017.90 1018.45 1019.00 1019.52 1020.01 1020.43 1020.78 1021.06 1021.29 1021.47 1021.63 1021.79 1021.95 1022.11 1022.27 1022.42 1022.53 1022.59 1022.58
1019.00 1018.94 1018.69 1018.24 1017.66 1016.97 1016.26 1015.56 1014.93 1014.41 1014.01 1013.74 1013.60 1013.56 1013.61 1013.72 1013.89 1014.09 1014.32 1014.61 1014.94 1015.34 1015.82 1016.36 1016.96 1017.60 1018.26 1018.91 1019.52 1020.06 1020.52 1020.90 1021.20 1021.45 1021.65 1021.84 1022.04 1022.24 1022.45 1022.66 1022.85 1022.99 1023.06 1023.04
1018.11 1017.93 1017.58 1017.07 1016.44 1015.75 1015.05 1014.38 1013.81 1013.34 1013.00 1012.79 1012.70 1012.70 1012.78 1012.91 1013.09 1013.30 1013.56 1013.88 1014.26 1014.73 1015.28 1015.92 1016.61 1017.35 1018.10 1018.82 1019.48 1020.06 1020.56 1020.96 1021.28 1021.54 1021.77 1022.00 1022.22 1022.47 1022.72 1022.96 1023.18 1023.34 1023.41 1023.40
1016.83 1016.55 1016.14 1015.62 1015.02 1014.38 1013.76 1013.19 1012.70 1012.33 1012.08 1011.94 1011.91 1011.95 1012.06 1012.21 1012.41 1012.64 1012.93 1013.28 1013.72 1014.25 1014.87 1015.57 1016.34 1017.14 1017.95 1018.71 1019.41 1020.01 1020.53 1020.94 1021.29 1021.57 1021.83 1022.09 1022.35 1022.62 1022.90 1023.17 1023.40 1023.57 1023.65 1023.62
1015.24 1014.89 1014.47 1013.97 1013.45 1012.91 1012.41 1011.96 1011.61 1011.35 1011.20 1011.15 1011.18 1011.28 1011.42 1011.61 1011.84 1012.10 1012.43 1012.82 1013.31 1013.89 1014.56 1015.31 1016.12 1016.95 1017.78 1018.56 1019.28 1019.90 1020.42 1020.86 1021.23 1021.54 1021.83 1022.12 1022.41 1022.71 1023.00 1023.28 1023.50 1023.66 1023.73 1023.70
1013.52 1013.12 1012.70 1012.26 1011.82 1011.41 1011.04 1010.73 1010.52 1010.38 1010.34 1010.38 1010.48 1010.64 1010.84 1011.07 1011.34 1011.65 1012.02 1012.47 1012.99 1013.61 1014.31 1015.09 1015.91 1016.76 1017.58 1018.37 1019.08 1019.71 1020.25 1020.71 1021.10 1021.45 1021.78 1022.10 1022.41 1022.72 1023.02 1023.29 1023.50 1023.64 1023.69 1023.65
1011.86 1011.42 1011.01 1010.63 1010.28 1009.98 1009.73 1009.56 1009.46 1009.44 1009.49 1009.61 1009.79 1010.01 1010.26 1010.55 1010.88 1011.25 1011.67 1012.16 1012.73 1013.38 1014.10 1014.88 1015.69 1016.52 1017.33 1018.10 1018.81 1019.44 1020.00 1020.48 1020.91 1021.31 1021.67 1022.02 1022.36 1022.67 1022.97 1023.21 1023.40 1023.52 1023.55 1023.50
1010.41 1009.96 1009.57 1009.23 1008.95 1008.73 1008.58 1008.49 1008.48 1008.54 1008.66 1008.85 1009.08 1009.36 1009.67 1010.02 1010.41 1010.84 1011.32 1011.86 1012.46 1013.13 1013.86 1014.63 1015.42 1016.22 1017.01 1017.75 1018.45 1019.09 1019.66 1020.18 1020.65 1021.09 1021.50 1021.88 1022.24 1022.56 1022.84 1023.07 1023.24 1023.33 1023.34 1023.29
1009.27 1008.81 1008.43 1008.12 1007.89 1007.72 1007.61 1007.58 1007.61 1007.71 1007.88 1008.10 1008.38 1008.70 1009.07 1009.48 1009.92 1010.41 1010.94 1011.53 1012.16 1012.83 1013.55 1014.30 1015.07 1015.84 1016.59 1017.32 1018.01 1018.65 1019.25 1019.81 1020.33 1020.81 1021.26 1021.68 1022.06 1022.39 1022.66 1022.88 1023.02 1023.09 1023.10 1023.06
1008.40 1007.96 1007.60 1007.31 1007.10 1006.94 1006.86 1006.83 1006.88 1006.99 1007.16 1007.40 1007.70 1008.05 1008.46 1008.91 1009.41 1009.94 1010.52 1011.13 1011.78 1012.46 1013.17 1013.89 1014.62 1015.36 1016.08 1016.79 1017.48 1018.13 1018.76 1019.36 1019.93 1020.46 1020.96 1021.41 1021.81 1022.15 1022.43 1022.63 1022.77 1022.84 1022.86 1022.84
1007.72 1007.32 1006.98 1006.71 1006.51 1006.36 1006.26 1006.23 1006.26 1006.36 1006.52 1006.76 1007.07 1007.44 1007.87 1008.35 1008.88 1009.45 1010.05 1010.67 1011.33 1012.00 1012.68 1013.38 1014.08 1014.79 1015.49 1016.19 1016.88 1017.55 1018.21 1018.85 1019.47 1020.05 1020.59 1021.07 1021.50 1021.85 1022.13 1022.34 1022.49 1022.57 1022.61 1022.62
1007.08 1006.73 1006.44 1006.20 1006.00 1005.85 1005.75 1005.71 1005.72 1005.80 1005.95 1006.18 1006.48 1006.86 1007.30 1007.80 1008.34 1008.92 1009.53 1010.15 1010.79 1011.45 1012.11 1012.78 1013.45 1014.13 1014.82 1015.52 1016.22 1016.92 1017.61 1018.29 1018.95 1019.57 1020.15 1020.67 1021.11 1021.48 1021.78 1022.00 1022.16 1022.27 1022.34 1022.40
1006.34 1006.06 1005.82 1005.62 1005.45 1005.32 1005.22 1005.17 1005.18 1005.25 1005.40 1005.62 1005.93 1006.31 1006.75 1007.25 1007.79 1008.36 1008.96 1009.57 1010.19 1010.82 1011.45 1012.09 1012.75 1013.41 1014.10 1014.80 1015.52 1016.24 1016.97 1017.69 1018.38 1019.04 1019.65 1020.19 1020.65 1021.04 1021.35 1021.59 1021.77 1021.91 1022.02 1022.13
1005.42 1005.22 1005.04 1004.89 1004.76 1004.66 1004.58 1004.55 1004.57 1004.66 1004.82 1005.05 1005.36 1005.74 1006.18 1006.67 1007.20 1007.76 1008.34 1008.92 1009.51 1010.11 1010.72 1011.34 1011.98 1012.64 1013.33 1014.05 1014.78 1015.54 1016.29 1017.04 1017.77 1018.45 1019.07 1019.63 1020.11 1020.51 1020.83 1021.09 1021.30 1021.47 1021.62 1021.77
1004.34 1004.19 1004.07 1003.97 1003.88 1003.81 1003.77 1003.78 1003.83 1003.94 1004.13 1004.38 1004.71 1005.10 1005.54 1006.03 1006.54 1007.08 1007.63 1008.19 1008.75 1009.32 1009.91 1010.52 1011.16 1011.82 1012.53 1013.26 1014.02 1014.80 1015.58 1016.35 1017.09 1017.78 1018.42 1018.98 1019.46 1019.87 1020.21 1020.49 1020.71 1020.91 1021.10 1021.29
1003.18 1003.06 1002.96 1002.88 1002.82 1002.79 1002.78 1002.82 1002.92 1003.07 1003.29 1003.58 1003.93 1004.34 1004.79 1005.27 1005.77 1006.29 1006.82 1007.35 1007.89 1008.45 1009.03 1009.64 1010.28 1010.96 1011.68 1012.44 1013.22 1014.02 1014.82 1015.60 1016.35 1017.05 1017.68 1018.24 1018.72 1019.13 1019.48 1019.77 1020.02 1020.24 1020.45 1020.67
1002.08 1001.94 1001.83 1001.74 1001.68 1001.65 1001.66 1001.73 1001.85 1002.04 1002.30 1002.62 1003.00 1003.42 1003.88 1004.36 1004.86 1005.37 1005.89 1006.41 1006.95 1007.50 1008.09 1008.70 1009.36 1010.06 1010.81 1011.58 1012.39 1013.20 1014.01 1014.80 1015.55 1016.24 1016.86 1017.41 1017.89 1018.31 1018.66 1018.96 1019.23 1019.47 1019.71 1019.94
1001.18 1000.98 1000.80 1000.66 1000.55 1000.49 1000.49 1000.56 1000.69 1000.90 1001.18 1001.53 1001.93 1002.37 1002.84 1003.33 1003.84 1004.35 1004.87 1005.40 1005.94 1006.51 1007.11 1007.75 1008.43 1009.15 1009.92 1010.72 1011.54 1012.36 1013.17 1013.95 1014.69 1015.37 1015.99 1016.53 1017.01 1017.42 1017.78 1018.10 1018.39 1018.65 1018.90 1019.15
1000.58 1000.26 999.98 999.74 999.56 999.43 999.39 999.42 999.54 999.74 1000.02 1000.38 1000.79 1001.25 1001.73 1002.24 1002.76 1003.29 1003.82 1004.37 1004.93 1005.53 1006.15 1006.82 1007.53 1008.28 1009.06 1009.88 1010.70 1011.53 1012.33 1013.10 1013.82 1014.49 1015.09 1015.63 1016.11 1016.53 1016.90 1017.24 1017.54 1017.83 1018.10 1018.35
1000.28 999.84 999.44 999.08 998.79 998.57 998.45 998.43 998.51 998.68 998.95 999.30 999.71 1000.17 1000.67 1001.19 1001.73 1002.28 1002.84 1003.41 1004.01 1004.64 1005.29 1005.99 1006.72 1007.49 1008.29 1009.11 1009.93 1010.75 1011.54 1012.29 1012.99 1013.64 1014.24 1014.77 1015.24 1015.67 1016.06 1016.42 1016.75 1017.05 1017.34 1017.61
1000.25 999.69 999.17 998.69 998.29 997.99 997.78 997.69 997.71 997.85 998.09 998.41 998.82 999.28 999.79 1000.32 1000.88 1001.45 1002.05 1002.65 1003.28 1003.94 1004.62 1005.34 1006.09 1006.87 1007.67 1008.48 1009.29 1010.08 1010.85 1011.58 1012.26 1012.89 1013.47 1013.99 1014.47 1014.91 1015.31 1015.69 1016.03 1016.36 1016.66 1016.93
1000.39 999.74 999.13 998.57 998.09 997.71 997.43 997.28 997.26 997.35 997.56 997.86 998.25 998.71 999.22 999.76 1000.34 1000.93 1001.55 1002.18 1002.83 1003.51 1004.22 1004.95 1005.70 1006.48 1007.26 1008.05 1008.83 1009.59 1010.32 1011.02 1011.67 1012.28 1012.83 1013.35 1013.83 1014.27 1014.68 1015.06 1015.42 1015.75 1016.05 1016.33
1000.59 999.92 999.27 998.68 998.16 997.74 997.43 997.25 997.19 997.25 997.44 997.72 998.10 998.55 999.05 999.60 1000.18 1000.79 1001.41 1002.06 1002.73 1003.41 1004.12 1004.85 1005.59 1006.34 1007.09 1007.84 1008.58 1009.29 1009.98 1010.63 1011.25 1011.82 1012.35 1012.85 1013.31 1013.74 1014.15 1014.52 1014.87 1015.19 1015.49 1015.75
Thickness
5680 5686 5686 5685 5686 5683 5678 5675 5669 5675 5677 5690 5694 5695 5697 5697 5696 5696 5694 5693 5692 5690 5688 5686 5685 5683 5681 5679 5676 5674 5671 5669 5667 5666 5664 5662 5661 5660 5659 5657 5657 5655 5653 5651
5677 5683 5681 5679 5684 5683 5681 5681 5677 5678 5681 5695 5695 5693 5692 5692 5692 5691 5691 5691 5690 5688 5686 5684 5682 5680 5678 5676 5674 5671 5668 5666 5664 5662 5660 5658 5657 5656 5654 5653 5652 5650 5650 5648
5660 5671 5675 5670 5682 5683 5683 5685 5683 5679 5687 5693 5689 5689 5689 5689 5689 5688 5689 5688 5686 5685 5683 5682 5680 5678 5675 5673 5671 5668 5665 5663 5660 5658 5656 5654 5653 5651 5650 5649 5647 5646 5645 5644
5650 5660 5654 5677 5693 5691 5687 5688 5689 5689 5691 5690 5690 5689 5690 5689 5688 5686 5686 5685 5684 5682 5681 5679 5678 5675 5672 5669 5666 5664 5661 5659 5657 5654 5652 5650 5648 5646 5646 5644 5643 5642 5641 5640
5641 5645 5654 5674 5688 5687 5681 5682 5691 5688 5689 5687 5686 5684 5684 5688 5687 5686 5685 5684 5682 5680 5678 5675 5673 5671 5667 5664 5661 5659 5656 5655 5653 5651 5648 5646 5643 5642 5641 5640 5638 5637 5637 5635
5636 5642 5645 5670 5689 5692 5684 5674 5690 5688 5685 5681 5679 5670 5677 5687 5685 5683 5682 5681 5678 5676 5673 5670 5668 5665 5662 5658 5656 5654 5653 5651 5650 5647 5645 5642 5641 5639 5637 5636 5634 5633 5632 5631
5633 5636 5649 5674 5684 5683 5663 5671 5688 5685 5682 5678 5675 5677 5681 5682 5680 5678 5677 5675 5673 5670 5667 5665 5662 5659 5656 5653 5651 5651 5649 5647 5645 5643 5641 5639 5637 5635 5633 5631 5629 5627 5626 5625
5628 5630 5646 5676 5674 5669 5672 5681 5682 5680 5679 5676 5675 5676 5676 5675 5673 5672 5669 5668 5666 5663 5660 5658 5656 5653 5650 5647 5647 5645 5643 5641 5639 5637 5636 5634 5631 5629 5627 5624 5622 5620 5619 5618
5641 5650 5664 5668 5670 5675 5675 5673 5675 5674 5674 5672 5669 5668 5668 5668 5666 5665 5663 5661 5659 5655 5652 5650 5649 5647 5644 5643 5641 5638 5636 5633 5631 5630 5629 5627 5625 5623 5620 5618 5616 5615 5613 5612
5638 5649 5658 5662 5665 5667 5668 5668 5669 5669 5668 5666 5663 5662 5661 5660 5659 5657 5656 5653 5651 5648 5645 5643 5642 5640 5639 5636 5634 5631 5628 5626 5623 5622 5620 5619 5618 5617 5614 5612 5610 5609 5607 5606
5633 5643 5650 5656 5658 5660 5661 5661 5662 5662 5661 5659 5658 5656 5655 5653 5652 5650 5649 5646 5644 5641 5639 5637 5635 5633 5631 5629 5627 5624 5621 5619 5617 5615 5613 5612 5611 5610 5609 5608 5607 5604 5603 5601
5632 5641 5640 5647 5654 5655 5654 5654 5655 5654 5653 5653 5652 5651 5650 5647 5645 5643 5642 5640 5637 5635 5632 5630 5628 5626 5624 5622 5620 5617 5614 5612 5610 5608 5607 5605 5604 5602 5602 5601 5601 5600 5598 5596
5637 5641 5640 5644 5647 5649 5648 5649 5649 5648 5648 5646 5646 5645 5643 5641 5639 5637 5635 5633 5631 5629 5626 5624 5622 5620 5618 5616 5614 5612 5609 5607 5604 5602 5600 5599 5597 5595 5594 5593 5592 5591 5591 5589
5631 5631 5631 5635 5638 5641 5641 5642 5642 5641 5641 5640 5639 5638 5636 5634 5632 5630 5629 5628 5625 5622 5620 5618 5616 5614 5612 5610 5608 5605 5603 5601 5598 5596 5594 5592 5591 5589 5587 5585 5583 5581 5581 5581
5624 5625 5627 5630 5631 5632 5633 5632 5631 5631 5632 5632 5632 5631 5629 5627 5626 5625 5623 5621 5618 5614 5612 5611 5609 5608 5607 5605 5602 5599 5597 5594 5592 5590 5588 5586 5584 5582 5580 5578 5575 5573 5572 5571
5616 5617 5618 5619 5622 5624 5624 5625 5624 5624 5624 5624 5624 5623 5623 5621 5620 5618 5615 5613 5611 5609 5607 5605 5604 5603 5601 5599 5596 5593 5591 5590 5587 5584 5581 5579 5576 5574 5572 5570 5568 5565 5564 5562
5605 5607 5609 5611 5614 5616 5617 5618 5618 5618 5617 5617 5617 5616 5614 5612 5610 5609 5608 5607 5606 5604 5602 5600 5598 5597 5595 5593 5590 5587 5585 5583 5582 5578 5575 5573 5570 5568 5565 5563 5560 5558 5556 5555
5606 5608 5609 5609 5609 5609 5610 5611 5611 5611 5611 5611 5609 5608 5606 5605 5603 5602 5601 5599 5597 5596 5595 5594 5592 5590 5588 5587 5584 5581 5579 5576 5574 5571 5569 5566 5563 5561 5558 5555 5553 5551 5548 5545
5601 5602 5603 5604 5604 5603 5603 5603 5603 5603 5604 5602 5601 5600 5599 5598 5597 5595 5593 5590 5589 5588 5588 5587 5586 5584 5581 5579 5577 5574 5571 5569 5566 5564 5561 5559 5556 5552 5550 5547 5545 5543 5540 5536
5594 5595 5595 5596 5596 5595 5595 5596 5596 5595 5595 5594 5593 5591 5590 5589 5588 5587 5584 5582 5583 5583 5582 5580 5578 5576 5574 5572 5570 5567 5564 5561 5558 5555 5553 5550 5547 5544 5542 5539 5537 5534 5531 5527
5584 5585 5586 5587 5587 5587 5587 5587 5587 5586 5586 5585 5584 5583 5582 5581 5579 5577 5575 5574 5575 5574 5572 5572 5569 5567 5565 5564 5562 5558 5555 5552 5549 5546 5544 5542 5539 5536 5533 5530 5528 5525 5522 5518
5573 5574 5576 5577 5577 5577 5578 5578 5578 5578 5577 5576 5576 5575 5573 5572 5570 5569 5569 5568 5568 5566 5564 5562 5560 5559 5557 5555 5552 5548 5546 5543 5540 5537 5534 5532 5530 5527 5524 5521 5519 5516 5513 5509
5563 5564 5566 5567 5568 5568 5568 5568 5569 5569 5568 5568 5567 5567 5565 5564 5563 5561 5560 5560 5558 5558 5555 5553 5552 5551 5548 5545 5542 5539 5536 5533 5529 5527 5524 5522 5520 5517 5514 5511 5509 5506 5502 5499
5553 5554 5556 5557 5557 5557 5557 5559 5559 5560 5560 5559 5559 5559 5557 5555 5554 5554 5554 5553 5551 5549 5547 5545 5544 5542 5539 5534 5531 5528 5525 5522 5520 5517 5514 5512 5509 5507 5504 5501 5498 5495 5492 5489
5543 5544 5545 5546 5546 5547 5548 5549 5548 5549 5549 5549 5549 5549 5549 5548 5547 5546 5544 5542 5541 5539 5537 5535 5534 5531 5528 5524 5521 5518 5515 5513 5510 5507 5504 5501 5499 5496 5494 5491 5488 5485 5482 5478
5533 5534 5535 5536 5537 5538 5539 5539 5538 5539 5539 5538 5539 5539 5539 5538 5538 5536 5534 5532 5530 5528 5526 5523 5521 5519 5516 5513 5511 5508 5505 5502 5499 5496 5494 5491 5488 5486 5483 5480 5477 5474 5471 5468
5522 5523 5523 5524 5526 5527 5528 5528 5529 5529 5530 5530 5529 5529 5528 5528 5527 5525 5523 5521 5519 5516 5514 5512 5510 5507 5504 5501 5499 5496 5494 5491 5489 5486 5483 5481 5478 5476 5473 5470 5467 5464 5461 5458